Tracking 29040 objects as of 15-Jun-2024
HD Live streaming from Space Station
objects crossing your sky now

ATLAS 5 CENTAUR DEB

Track ATLAS 5 CENTAUR DEB now!


NORAD ID: 44006
Int'l Code: 2014-055BM
Perigee: 7,507.8 km
Apogee: 35,099.9 km
Inclination: 19.9 °
Period: 763.6 minutes
Semi major axis: 27674 km
RCS: Unknown
Launch date: September 17, 2014
Source: United States (US)
Launch site: AIR FORCE EASTERN TEST RANGE (AFETR)

Note: This is SATELLITE DEBRIS
Your satellite tracking list
Your tracking list is empty




NASA's NSSDC Master Catalog

Two Line Element Set (TLE):
1 44006U 14055BM  24165.84913640 -.00000053  00000-0  00000-0 0  9991
2 44006  19.8852 204.5584 4985054  62.7943 339.1087  1.88570887 39413
Source of the keplerian elements: AFSPC